Location: Leipzig
(51.3392°N, 12.3528°E)
Time: 21:22:14
(UTC+01:00)

OTV 5 (USA 277) - Visible Passes

Search period start: 18 February 2018 00:00
Search period end: 28 February 2018 00:00
Orbit: 404 x 417 km, 43.0° (Epoch: 07 September)

Date Brightness Start Highest point End Pass type
(mag) Time Alt. Az. Time Alt. Az. Time Alt. Az.
23 Feb ? 05:53:33 10° SSW 05:55:17 14° SSE 05:57:02 10° SE visible
24 Feb ? 05:03:42 11° S 05:04:26 11° SSE 05:05:28 10° SE visible
25 Feb ? 05:47:48 10° SW 05:50:05 18° S 05:52:24 10° SE visible
26 Feb ? 04:59:06 16° S 04:59:12 16° SSE 05:01:18 10° SE visible
27 Feb ? 05:43:07 13° SW 05:44:55 19° S 05:47:22 10° SE visible
